CW9790 Weather Reports


Display with metric or nautical units.
time (UTC)temp
F
wind
direction
speed
MPH
gust
MPH
rain 1hr
in
rain 24hr
in
rain mn
in
humidity
%
barometer
mb
20260509203017 92 248 2.0 8.0 0.00 0.00 0.00 45 1009.0
20260509202017 91 270 2.0 6.0 0.00 0.00 0.00 47 1009.1
20260509201017 91 225 2.0 5.0 0.00 0.00 0.00 44 1009.1
20260509200017 90 293 3.0 7.0 0.00 0.00 0.00 43 1009.2
20260509195018 89 270 3.0 8.0 0.00 0.00 0.00 44 1009.3
20260509194017 89 203 2.0 9.0 0.00 0.00 0.00 49 1009.5
20260509193018 90 270 2.0 9.0 0.00 0.00 0.00 47 1009.5
20260509192018 89 248 2.0 8.0 0.00 0.00 0.00 47 1009.5
20260509191017 89 248 3.0 10.0 0.00 0.00 0.00 49 1009.7
20260509190037 89 225 3.0 10.0 0.00 0.00 0.00 49 1009.7
20260509185057 88 180 3.0 9.0 0.00 0.00 0.00 51 1009.7
20260509184017 87 270 2.0 7.0 0.00 0.00 0.00 53 1010.0
20260509183017 87 225 2.0 6.0 0.00 0.00 0.00 55 1010.2
20260509182038 87 158 3.0 10.0 0.00 0.00 0.00 55 1010.2
20260509181017 86 270 3.0 10.0 0.00 0.00 0.00 58 1010.4
20260509180038 86 225 1.0 6.0 0.00 0.00 0.00 60 1010.5
20260509175017 85 338 2.0 7.0 0.00 0.00 0.00 61 1010.7
20260509174017 86 225 2.0 5.0 0.00 0.00 0.00 61 1010.9
20260509173018 86 225 2.0 10.0 0.00 0.00 0.00 60 1011.0
20260509172017 85 158 2.0 9.0 0.00 0.00 0.00 65 1011.0
20260509171017 84 158 2.0 6.0 0.00 0.00 0.00 67 1011.0
20260509170017 83 158 2.0 10.0 0.00 0.00 0.00 68 1011.1
20260509165037 83 113 3.0 6.0 0.00 0.00 0.00 70 1011.1
20260509164017 82 135 2.0 5.0 0.00 0.00 0.00 73 1011.1
20260509163017 80 135 2.0 6.0 0.00 0.00 0.00 75 1010.9
20260509162016 80 135 3.0 9.0 0.00 0.00 0.00 74 1011.1
20260509161017 79 135 2.0 7.0 0.00 0.00 0.00 78 1011.1
20260509160017 78 135 2.0 7.0 0.00 0.00 0.00 81 1010.9
20260509155016 77 135 2.0 7.0 0.00 0.00 0.00 83 1010.7
20260509154017 75 113 2.0 5.0 0.00 0.00 0.00 91 1010.8
20260509153016 74 113 2.0 5.0 0.00 0.00 0.00 94 1010.2
20260509152017 72 113 2.0 6.0 0.00 0.00 0.00 95 1010.2
20260509151016 71 158 1.0 5.0 0.00 0.00 0.00 95 1009.8
20260509150016 70 203 1.0 4.0 0.00 0.00 0.00 95 1009.9
20260509145016 70 203 2.0 6.0 0.00 0.00 0.00 95 1009.9
20260509144036 69 135 2.0 5.0 0.00 0.00 0.00 95 1010.1
20260509143016 69 158 2.0 4.0 0.00 0.00 0.00 95 1009.7
20260509142058 68 135 2.0 5.0 0.00 0.00 0.00 95 1009.7
20260509141016 68 225 2.0 5.0 0.00 0.00 0.00 95 1009.9
20260509140018 68 113 1.0 4.0 0.00 0.00 0.00 95 1009.9
20260509135016 68 338 1.0 3.0 0.00 0.00 0.00 95 1010.2
20260509134016 67 338 1.0 4.0 0.00 0.00 0.00 95 1010.5
20260509133016 67 0 2.0 5.0 0.00 0.00 0.00 95 1010.6
20260509132036 67 23 2.0 5.0 0.00 0.00 0.00 95 1010.5
20260509131017 68 45 1.0 2.0 0.00 0.00 0.00 95 1010.5
20260509130016 67 23 1.0 4.0 0.00 0.00 0.00 95 1010.4
20260509125016 67 23 1.0 3.0 0.00 0.00 0.00 95 1010.4
20260509124016 67 23 1.0 4.0 0.00 0.00 0.00 95 1010.4
20260509123016 67 23 2.0 5.0 0.00 0.00 0.00 95 1010.2
20260509122016 67 45 2.0 5.0 0.00 0.00 0.00 95 1010.4
20260509121016 67 45 2.0 6.0 0.00 0.00 0.00 95 1010.6
20260509120016 67 338 2.0 5.0 0.00 0.00 0.00 95 1010.4
20260509115017 67 68 2.0 6.0 0.00 0.00 0.00 95 1010.6
20260509114016 68 0 4.0 7.0 0.00 0.00 0.00 95 1010.7
20260509113017 68 23 3.0 6.0 0.00 0.00 0.00 95 1010.8
20260509112016 68 0 5.0 12.0 0.00 0.00 0.00 95 1010.9
20260509111016 68 0 3.0 9.0 0.00 0.00 0.00 95 1010.9
20260509110017 68 0 4.0 10.0 0.00 0.00 0.00 95 1011.1
20260509105016 69 0 3.0 10.0 0.00 0.00 0.00 95 1011.0
20260509104016 69 0.0 0.0 0.00 0.00 0.00 95 1010.1
20260509103016 69 0.0 0.0 0.00 0.00 0.00 95 1009.9
20260509102016 68 0.0 0.0 0.00 0.00 0.00 95 1009.9
20260509101015 68 0.0 0.0 0.00 0.00 0.00 95 1009.7
20260509100037 68 0.0 0.0 0.00 0.00 0.00 94 1009.4
20260509095016 68 0.0 0.0 0.00 0.00 0.00 94 1009.4
20260509094119 68 0.0 0.0 0.00 0.00 0.00 94 1009.5
20260509093017 68 0.0 0.0 0.00 0.00 0.00 94 1009.4
20260509092037 68 0.0 0.0 0.00 0.00 0.00 94 1009.0
20260509091018 68 0.0 0.0 0.00 0.00 0.00 94 1009.0
20260509090118 68 0.0 0.0 0.00 0.00 0.00 94 1009.2
20260509085058 68 0.0 0.0 0.00 0.00 0.00 94 1009.3
20260509084018 68 0.0 0.0 0.00 0.00 0.00 94 1009.5
20260509083017 68 0.0 0.0 0.00 0.00 0.00 94 1009.7
20260509082018 68 0.0 0.0 0.00 0.00 0.00 94 1009.7
20260509081037 67 0.0 0.0 0.00 0.00 0.00 94 1010.0
20260509080018 67 0.0 0.0 0.00 0.00 0.00 94 1010.0
20260509075017 67 0.0 0.0 0.00 0.00 0.00 94 1009.9
20260509074037 67 0.0 0.0 0.00 0.00 0.00 94 1009.9
20260509073018 67 0.0 0.0 0.00 0.00 0.00 94 1009.8
20260509072017 67 0.0 0.0 0.00 0.00 0.00 94 1010.0
20260509071041 67 0.0 0.0 0.00 0.00 0.00 94 1010.0
20260509070017 67 0.0 0.0 0.00 0.00 0.00 94 1010.1
20260509065058 67 0.0 0.0 0.00 0.00 0.00 94 1009.8
20260509064017 67 0.0 3.0 0.00 0.00 0.00 94 1009.8
20260509063017 67 0.0 0.0 0.00 0.00 0.00 94 1009.8
20260509062058 66 0.0 0.0 0.00 0.00 0.00 94 1009.6
20260509061017 66 0.0 0.0 0.00 0.00 0.00 93 1009.6
20260509060017 66 0.0 0.0 0.00 0.00 0.00 93 1009.7
20260509055017 66 0.0 0.0 0.00 0.00 0.00 93 1009.7
20260509054017 66 0.0 0.0 0.00 0.00 0.00 93 1009.9
20260509053017 66 0.0 0.0 0.00 0.00 0.00 93 1009.9
20260509052017 66 0.0 1.0 0.00 0.00 0.00 93 1010.1
20260509051017 67 0.0 2.0 0.00 0.00 0.00 93 1010.1
20260509050037 67 0.0 5.0 0.00 0.00 0.00 93 1010.1
20260509045016 67 0.0 2.0 0.00 0.00 0.00 93 1009.7
20260509044017 67 135 1.0 4.0 0.00 0.00 0.00 93 1009.5
20260509043016 66 0.0 3.0 0.00 0.00 0.00 92 1009.7
20260509042016 66 0.0 2.0 0.00 0.00 0.00 92 1008.9
20260509041016 66 0.0 0.0 0.00 0.00 0.00 91 1008.4
20260509040017 66 0.0 0.0 0.00 0.00 0.00 91 1008.3
20260509035037 66 0.0 0.0 0.00 0.00 0.00 91 1008.1
20260509034016 66 0.0 0.0 0.00 0.00 0.00 90 1008.0
20260509033016 67 0.0 0.0 0.00 0.00 0.00 89 1008.1
20260509032017 67 0.0 0.0 0.00 0.00 0.00 89 1008.0
20260509031016 68 0.0 0.0 0.00 0.00 0.00 89 1007.9
20260509030037 68 0.0 0.0 0.00 0.00 0.00 87 1007.8
20260509025016 68 0.0 0.0 0.00 0.00 0.00 87 1007.6
20260509024016 69 0.0 0.0 0.00 0.00 0.00 87 1007.8
20260509023016 69 0.0 0.0 0.00 0.00 0.00 86 1007.9
20260509022016 70 0.0 0.0 0.00 0.00 0.00 85 1007.9
20260509021016 70 0.0 0.0 0.00 0.00 0.00 86 1007.8
20260509020016 71 0.0 0.0 0.00 0.00 0.00 85 1007.7
20260509015036 71 0.0 0.0 0.00 0.00 0.00 84 1007.4
20260509014016 72 0.0 0.0 0.00 0.00 0.00 83 1007.5
20260509013015 72 0.0 0.0 0.00 0.00 0.00 83 1007.4
20260509012118 73 0.0 1.0 0.00 0.00 0.00 82 1007.3
20260509011036 73 0.0 2.0 0.00 0.00 0.00 81 1007.1
20260509010036 74 0.0 3.0 0.00 0.00 0.00 81 1007.0
20260509005057 74 0.0 3.0 0.00 0.00 0.00 80 1006.9
20260509004018 75 158 1.0 7.0 0.00 0.00 0.00 79 1007.0
20260509003038 76 135 2.0 7.0 0.00 0.00 0.00 78 1006.9
20260509002017 76 135 2.0 6.0 0.00 0.00 0.00 78 1006.9
20260509001017 77 135 2.0 6.0 0.00 0.00 0.00 77 1007.1
20260509000019 77 135 3.0 9.0 0.00 0.00 0.00 76 1007.1
20260508235017 78 135 2.0 9.0 0.00 0.00 0.00 75 1007.4
20260508234038 78 158 2.0 9.0 0.00 0.00 0.00 76 1007.5
20260508233016 78 135 2.0 5.0 0.00 0.00 0.00 77 1007.3
20260508232058 77 135 2.0 6.0 0.00 0.00 0.00 78 1007.4
20260508231039 77 135 2.0 7.0 0.00 0.00 0.00 77 1007.5
20260508230018 77 135 2.0 6.0 0.00 0.00 0.00 77 1007.6
20260508225017 77 135 2.0 7.0 0.00 0.00 0.00 76 1007.5
20260508224037 78 135 2.0 6.0 0.00 0.00 0.00 76 1007.7
20260508223018 78 135 1.0 6.0 0.00 0.00 0.00 76 1007.8
20260508222017 78 135 2.0 7.0 0.00 0.00 0.00 75 1007.8
20260508221017 78 135 1.0 5.0 0.00 0.00 0.00 76 1007.7
20260508220017 77 158 1.0 4.0 0.00 0.00 0.00 76 1007.7
20260508215017 77 135 2.0 6.0 0.00 0.00 0.00 75 1007.9
20260508214038 78 135 2.0 11.0 0.00 0.00 0.00 74 1008.0
20260508213017 78 135 2.0 6.0 0.00 0.00 0.00 74 1008.1
20260508212058 79 135 2.0 6.0 0.00 0.00 0.00 74 1008.2
20260508211017 78 158 2.0 6.0 0.00 0.00 0.00 73 1008.2
20260508210017 78 135 2.0 5.0 0.00 0.00 0.00 73 1008.4
20260508205018 79 225 2.0 5.0 0.00 0.00 0.00 71 1008.6
20260508204017 81 135 2.0 12.0 0.00 0.00 0.00 69 1008.8